{"data":{"norad_id":66611,"epoch":"2026-09-19T09:47:30.081984Z","epoch_age_seconds":180848,"freshness":"STALE","line1":"1 66611U 25270Z   26262.40798706  .00014725  00000+0  54348-3 0  9990","line2":"2 66611  42.9989  42.0611 0002158 279.0813  80.9794 15.27583741 47442","mean_motion":15.27583741,"eccentricity":0.0002158,"inclination_deg":42.9989,"raan_deg":42.0611,"arg_perigee_deg":279.0813,"mean_anomaly_deg":80.9794,"bstar":0.00054348,"rev_number":4744,"period_min":94.266517857629,"perigee_km":481.55725262054,"apogee_km":484.51853570486,"semimajor_km":6861.1748941627,"source":"CELESTRAK","updated_at":"2026-09-21T09:00:35.980523Z"}}